owner,sensor,date,latitude,longitude,vertical_datum,wind_speed,wind_to_direction,wind_speed_of_gust,qcFlag 
ADCP,ioos:station:wmo:42887:1,2015-02-01T00:20:00Z,28.1910,-88.4960,48.2,7.1,104.0,99.0,'11111222,11111222,11144222' 
ADCP,ioos:station:wmo:42887:1,2015-02-01T00:40:00Z,28.1910,-88.4960,48.2,9.0,117.0,99.0,'11111222,11111222,11144222' 
ADCP,ioos:station:wmo:42887:1,2015-02-01T01:00:00Z,28.1910,-88.4960,48.2,6.4,118.0,99.0,'11111222,11111222,11144222' 
ADCP,ioos:station:wmo:42887:1,2015-02-01T01:20:00Z,28.1910,-88.4960,48.2,6.6,122.0,99.0,'11111222,11111222,11144222' 
ADCP,ioos:station:wmo:42887:1,2015-02-01T01:40:00Z,28.1910,-88.4960,48.2,8.7,120.0,99.0,'11111222,11111222,11144222' 
ADCP,ioos:station:wmo:42887:1,2015-02-01T02:00:00Z,28.1910,-88.4960,48.2,7.7,122.0,99.0,'11111222,11111222,11144222' 
ADCP,ioos:station:wmo:42887:1,2015-02-01T02:20:00Z,28.1910,-88.4960,48.2,7.8,120.0,99.0,'11111222,11111222,11144222' 
ADCP,ioos:station:wmo:42887:1,2015-02-01T02:40:00Z,28.1910,-88.4960,48.2,8.3,121.0,99.0,'11111222,11111222,11144222' 
ADCP,ioos:station:wmo:42887:1,2015-02-01T03:00:00Z,28.1910,-88.4960,48.2,7.5,127.0,99.0,'11111222,11111222,11144222' 
ADCP,ioos:station:wmo:42887:1,2015-02-01T03:20:00Z,28.1910,-88.4960,48.2,8.1,118.0,99.0,'11111222,11111222,11144222' 
ADCP,ioos:station:wmo:42887:1,2015-02-01T03:40:00Z,28.1910,-88.4960,48.2,8.5,129.0,99.0,'11111222,11111222,11144222' 
ADCP,ioos:station:wmo:42887:1,2015-02-01T04:00:00Z,28.1910,-88.4960,48.2,7.9,132.0,99.0,'11111222,11111222,11144222' 
ADCP,ioos:station:wmo:42887:1,2015-02-01T04:20:00Z,28.1910,-88.4960,48.2,8.7,131.0,99.0,'11111222,11111222,11144222' 
ADCP,ioos:station:wmo:42887:1,2015-02-01T04:40:00Z,28.1910,-88.4960,48.2,9.4,139.0,99.0,'11111222,11111222,11144222' 
ADCP,ioos:station:wmo:42887:1,2015-02-01T05:00:00Z,28.1910,-88.4960,48.2,8.0,134.0,99.0,'11111222,11111222,11144222' 
ADCP,ioos:station:wmo:42887:1,2015-02-01T05:20:00Z,28.1910,-88.4960,48.2,6.7,128.0,99.0,'11111222,11111222,11144222' 
ADCP,ioos:station:wmo:42887:1,2015-02-01T05:40:00Z,28.1910,-88.4960,48.2,3.9,123.0,99.0,'11111222,11111222,11144222' 
ADCP,ioos:station:wmo:42887:1,2015-02-01T06:00:00Z,28.1910,-88.4960,48.2,8.2,131.0,99.0,'11111222,11111222,11144222' 
ADCP,ioos:station:wmo:42887:1,2015-02-01T06:20:00Z,28.1910,-88.4960,48.2,6.5,132.0,99.0,'11111222,11111222,11144222' 
ADCP,ioos:station:wmo:42887:1,2015-02-01T06:40:00Z,28.1910,-88.4960,48.2,5.8,133.0,99.0,'11111222,11111222,11144222' 
ADCP,ioos:station:wmo:42887:1,2015-02-01T07:00:00Z,28.1910,-88.4960,48.2,7.6,138.0,99.0,'11111222,11111222,11144222' 
ADCP,ioos:station:wmo:42887:1,2015-02-01T07:20:00Z,28.1910,-88.4960,48.2,6.0,128.0,99.0,'11111222,11111222,11144222' 
ADCP,ioos:station:wmo:42887:1,2015-02-01T07:40:00Z,28.1910,-88.4960,48.2,7.2,126.0,99.0,'11111222,11111222,11144222' 
ADCP,ioos:station:wmo:42887:1,2015-02-01T08:00:00Z,28.1910,-88.4960,48.2,7.5,131.0,99.0,'11111222,11111222,11144222' 
ADCP,ioos:station:wmo:42887:1,2015-02-01T08:20:00Z,28.1910,-88.4960,48.2,6.3,134.0,99.0,'11111222,11111222,11144222' 
ADCP,ioos:station:wmo:42887:1,2015-02-01T08:40:00Z,28.1910,-88.4960,48.2,8.5,139.0,99.0,'11111222,11111222,11144222' 
ADCP,ioos:station:wmo:42887:1,2015-02-01T09:00:00Z,28.1910,-88.4960,48.2,8.9,138.0,99.0,'11111222,11111222,11144222' 
ADCP,ioos:station:wmo:42887:1,2015-02-01T09:20:00Z,28.1910,-88.4960,48.2,9.1,139.0,99.0,'11111222,11111222,11144222' 
ADCP,ioos:station:wmo:42887:1,2015-02-01T09:40:00Z,28.1910,-88.4960,48.2,7.1,133.0,99.0,'11111222,11111222,11144222' 
ADCP,ioos:station:wmo:42887:1,2015-02-01T10:00:00Z,28.1910,-88.4960,48.2,7.9,141.0,99.0,'11111222,11111222,11144222' 
ADCP,ioos:station:wmo:42887:1,2015-02-01T10:20:00Z,28.1910,-88.4960,48.2,7.5,136.0,99.0,'11111222,11111222,11144222' 
ADCP,ioos:station:wmo:42887:1,2015-02-01T10:40:00Z,28.1910,-88.4960,48.2,7.7,135.0,99.0,'11111222,11111222,11144222' 
ADCP,ioos:station:wmo:42887:1,2015-02-01T11:00:00Z,28.1910,-88.4960,48.2,8.8,144.0,99.0,'11111222,11111222,11144222' 
ADCP,ioos:station:wmo:42887:1,2015-02-01T11:20:00Z,28.1910,-88.4960,48.2,10.6,143.0,99.0,'11111222,11111222,11144222' 
ADCP,ioos:station:wmo:42887:1,2015-02-01T11:40:00Z,28.1910,-88.4960,48.2,8.5,149.0,99.0,'11111222,11111222,11144222' 
ADCP,ioos:station:wmo:42887:1,2015-02-01T12:00:00Z,28.1910,-88.4960,48.2,10.8,148.0,99.0,'11111222,11111222,11144222' 
ADCP,ioos:station:wmo:42887:1,2015-02-01T12:20:00Z,28.1910,-88.4960,48.2,9.1,146.0,99.0,'11111222,11111222,11144222' 
ADCP,ioos:station:wmo:42887:1,2015-02-01T12:40:00Z,28.1910,-88.4960,48.2,9.4,160.0,99.0,'11111222,11111222,11144222' 
ADCP,ioos:station:wmo:42887:1,2015-02-01T13:00:00Z,28.1910,-88.4960,48.2,8.3,143.0,99.0,'11111222,11111222,11144222' 
ADCP,ioos:station:wmo:42887:1,2015-02-01T13:20:00Z,28.1910,-88.4960,48.2,9.8,139.0,99.0,'11111222,11111222,11144222' 
ADCP,ioos:station:wmo:42887:1,2015-02-01T13:40:00Z,28.1910,-88.4960,48.2,7.9,129.0,99.0,'11111222,11111222,11144222' 
ADCP,ioos:station:wmo:42887:1,2015-02-01T14:00:00Z,28.1910,-88.4960,48.2,6.4,124.0,99.0,'11111222,11111222,11144222' 
ADCP,ioos:station:wmo:42887:1,2015-02-01T14:20:00Z,28.1910,-88.4960,48.2,8.2,127.0,99.0,'11111222,11111222,11144222' 
ADCP,ioos:station:wmo:42887:1,2015-02-01T14:40:00Z,28.1910,-88.4960,48.2,7.6,121.0,99.0,'11111222,11111222,11144222' 
ADCP,ioos:station:wmo:42887:1,2015-02-01T15:00:00Z,28.1910,-88.4960,48.2,5.3,127.0,99.0,'11111222,11111222,11144222' 
ADCP,ioos:station:wmo:42887:1,2015-02-01T15:20:00Z,28.1910,-88.4960,48.2,6.0,131.0,99.0,'11111222,11111222,11144222' 
ADCP,ioos:station:wmo:42887:1,2015-02-01T15:40:00Z,28.1910,-88.4960,48.2,7.6,142.0,99.0,'11111222,11111222,11144222' 
ADCP,ioos:station:wmo:42887:1,2015-02-01T16:00:00Z,28.1910,-88.4960,48.2,7.5,151.0,99.0,'11111222,11111222,11144222' 
ADCP,ioos:station:wmo:42887:1,2015-02-01T16:20:00Z,28.1910,-88.4960,48.2,7.5,175.0,99.0,'11111222,11111222,11144222' 
ADCP,ioos:station:wmo:42887:1,2015-02-01T16:40:00Z,28.1910,-88.4960,48.2,6.3,175.0,99.0,'11111222,11111222,11144222' 
ADCP,ioos:station:wmo:42887:1,2015-02-01T17:00:00Z,28.1910,-88.4960,48.2,8.1,195.0,99.0,'11111222,11111222,11144222' 
ADCP,ioos:station:wmo:42887:1,2015-02-01T17:20:00Z,28.1910,-88.4960,48.2,9.6,201.0,99.0,'11111222,11111222,11144222' 
ADCP,ioos:station:wmo:42887:1,2015-02-01T17:40:00Z,28.1910,-88.4960,48.2,10.3,192.0,99.0,'11111222,11111222,11144222' 
ADCP,ioos:station:wmo:42887:1,2015-02-01T18:00:00Z,28.1910,-88.4960,48.2,9.3,202.0,99.0,'11111222,11111222,11144222' 
ADCP,ioos:station:wmo:42887:1,2015-02-01T18:20:00Z,28.1910,-88.4960,48.2,10.0,210.0,99.0,'11111222,11111222,11144222' 
ADCP,ioos:station:wmo:42887:1,2015-02-01T18:40:00Z,28.1910,-88.4960,48.2,9.9,199.0,99.0,'11111222,11111222,11144222' 
ADCP,ioos:station:wmo:42887:1,2015-02-01T19:00:00Z,28.1910,-88.4960,48.2,9.6,205.0,99.0,'11111222,11111222,11144222' 
ADCP,ioos:station:wmo:42887:1,2015-02-01T19:20:00Z,28.1910,-88.4960,48.2,8.8,200.0,99.0,'11111222,11111222,11144222' 
ADCP,ioos:station:wmo:42887:1,2015-02-01T19:40:00Z,28.1910,-88.4960,48.2,9.7,203.0,99.0,'11111222,11111222,11144222' 
ADCP,ioos:station:wmo:42887:1,2015-02-01T20:00:00Z,28.1910,-88.4960,48.2,8.6,216.0,99.0,'11111222,11111222,11144222' 
ADCP,ioos:station:wmo:42887:1,2015-02-01T20:20:00Z,28.1910,-88.4960,48.2,9.0,226.0,99.0,'11111222,11111222,11144222' 
ADCP,ioos:station:wmo:42887:1,2015-02-01T20:40:00Z,28.1910,-88.4960,48.2,9.7,226.0,99.0,'11111222,11111222,11144222' 
ADCP,ioos:station:wmo:42887:1,2015-02-01T21:00:00Z,28.1910,-88.4960,48.2,8.6,223.0,99.0,'11111222,11111222,11144222' 
ADCP,ioos:station:wmo:42887:1,2015-02-01T21:20:00Z,28.1910,-88.4960,48.2,8.1,225.0,99.0,'11111222,11111222,11144222' 
ADCP,ioos:station:wmo:42887:1,2015-02-01T21:40:00Z,28.1910,-88.4960,48.2,8.3,225.0,99.0,'11111222,11111222,11144222' 
ADCP,ioos:station:wmo:42887:1,2015-02-01T22:00:00Z,28.1910,-88.4960,48.2,7.5,230.0,99.0,'11111222,11111222,11144222' 
ADCP,ioos:station:wmo:42887:1,2015-02-01T22:20:00Z,28.1910,-88.4960,48.2,7.8,225.0,99.0,'11111222,11111222,11144222' 
ADCP,ioos:station:wmo:42887:1,2015-02-01T22:40:00Z,28.1910,-88.4960,48.2,7.0,226.0,99.0,'11111222,11111222,11144222' 
ADCP,ioos:station:wmo:42887:1,2015-02-01T23:00:00Z,28.1910,-88.4960,48.2,7.6,225.0,99.0,'11111222,11111222,11144222' 
ADCP,ioos:station:wmo:42887:1,2015-02-01T23:20:00Z,28.1910,-88.4960,48.2,8.1,224.0,99.0,'11111222,11111222,11144222' 
ADCP,ioos:station:wmo:42887:1,2015-02-01T23:39:00Z,28.1910,-88.4960,48.2,8.7,227.0,99.0,'11111222,11111222,11144222' 
ADCP,ioos:station:wmo:42887:1,2015-02-02T00:00:00Z,28.1910,-88.4960,48.2,8.4,224.0,99.0,'11111222,11111222,11144222' 
ADCP,ioos:station:wmo:42887:1,2015-02-02T00:20:00Z,28.1910,-88.4960,48.2,7.5,229.0,99.0,'11111222,11111222,11144222' 
ADCP,ioos:station:wmo:42887:1,2015-02-02T00:40:00Z,28.1910,-88.4960,48.2,7.8,226.0,99.0,'11111222,11111222,11144222' 
ADCP,ioos:station:wmo:42887:1,2015-02-02T01:00:00Z,28.1910,-88.4960,48.2,8.6,221.0,99.0,'11111222,11111222,11144222' 
ADCP,ioos:station:wmo:42887:1,2015-02-02T01:20:00Z,28.1910,-88.4960,48.2,8.2,218.0,99.0,'11111222,11111222,11144222' 
ADCP,ioos:station:wmo:42887:1,2015-02-02T01:40:00Z,28.1910,-88.4960,48.2,8.0,218.0,99.0,'11111222,11111222,11144222' 
ADCP,ioos:station:wmo:42887:1,2015-02-02T02:00:00Z,28.1910,-88.4960,48.2,6.8,229.0,99.0,'11111222,11111222,11144222' 
ADCP,ioos:station:wmo:42887:1,2015-02-02T02:20:00Z,28.1910,-88.4960,48.2,8.5,217.0,99.0,'11111222,11111222,11144222' 
ADCP,ioos:station:wmo:42887:1,2015-02-02T02:40:00Z,28.1910,-88.4960,48.2,9.0,223.0,99.0,'11111222,11111222,11144222' 
ADCP,ioos:station:wmo:42887:1,2015-02-02T03:00:00Z,28.1910,-88.4960,48.2,9.1,222.0,99.0,'11111222,11111222,11144222' 
ADCP,ioos:station:wmo:42887:1,2015-02-02T03:20:00Z,28.1910,-88.4960,48.2,8.5,219.0,99.0,'11111222,11111222,11144222' 
ADCP,ioos:station:wmo:42887:1,2015-02-02T03:40:00Z,28.1910,-88.4960,48.2,8.8,227.0,99.0,'11111222,11111222,11144222' 
ADCP,ioos:station:wmo:42887:1,2015-02-02T04:00:00Z,28.1910,-88.4960,48.2,8.8,219.0,99.0,'11111222,11111222,11144222' 
ADCP,ioos:station:wmo:42887:1,2015-02-02T04:20:00Z,28.1910,-88.4960,48.2,9.1,225.0,99.0,'11111222,11111222,11144222' 
ADCP,ioos:station:wmo:42887:1,2015-02-02T04:40:00Z,28.1910,-88.4960,48.2,8.0,219.0,99.0,'11111222,11111222,11144222' 
ADCP,ioos:station:wmo:42887:1,2015-02-02T05:00:00Z,28.1910,-88.4960,48.2,6.2,251.0,99.0,'11111222,11111222,11144222' 
ADCP,ioos:station:wmo:42887:1,2015-02-02T05:20:00Z,28.1910,-88.4960,48.2,8.0,232.0,99.0,'11111222,11111222,11144222' 
ADCP,ioos:station:wmo:42887:1,2015-02-02T05:40:00Z,28.1910,-88.4960,48.2,13.2,262.0,99.0,'11111222,11111222,11144222' 
ADCP,ioos:station:wmo:42887:1,2015-02-02T06:00:00Z,28.1910,-88.4960,48.2,9.1,275.0,99.0,'11111222,11111222,11144222' 
ADCP,ioos:station:wmo:42887:1,2015-02-02T06:20:00Z,28.1910,-88.4960,48.2,11.0,275.0,99.0,'11111222,11111222,11144222' 
ADCP,ioos:station:wmo:42887:1,2015-02-02T06:40:00Z,28.1910,-88.4960,48.2,10.6,276.0,99.0,'11111222,11111222,11144222' 
ADCP,ioos:station:wmo:42887:1,2015-02-02T06:59:00Z,28.1910,-88.4960,48.2,7.8,258.0,99.0,'11111222,11111222,11144222' 
ADCP,ioos:station:wmo:42887:1,2015-02-02T07:20:00Z,28.1910,-88.4960,48.2,7.2,258.0,99.0,'11111222,11111222,11144222' 
ADCP,ioos:station:wmo:42887:1,2015-02-02T07:40:00Z,28.1910,-88.4960,48.2,7.8,262.0,99.0,'11111222,11111222,11144222' 
ADCP,ioos:station:wmo:42887:1,2015-02-02T08:00:00Z,28.1910,-88.4960,48.2,9.1,277.0,99.0,'11111222,11111222,11144222' 
ADCP,ioos:station:wmo:42887:1,2015-02-02T08:20:00Z,28.1910,-88.4960,48.2,13.8,338.0,99.0,'11111222,11111222,11144222' 
ADCP,ioos:station:wmo:42887:1,2015-02-02T08:40:00Z,28.1910,-88.4960,48.2,14.1,340.0,99.0,'11111222,11111222,11144222' 
ADCP,ioos:station:wmo:42887:1,2015-02-02T09:00:00Z,28.1910,-88.4960,48.2,14.2,329.0,99.0,'11111222,11111222,11144222' 
ADCP,ioos:station:wmo:42887:1,2015-02-02T09:20:00Z,28.1910,-88.4960,48.2,15.7,332.0,99.0,'11111222,11111222,11144222' 
ADCP,ioos:station:wmo:42887:1,2015-02-02T09:40:00Z,28.1910,-88.4960,48.2,13.6,330.0,99.0,'11111222,11111222,11144222' 
ADCP,ioos:station:wmo:42887:1,2015-02-02T10:00:00Z,28.1910,-88.4960,48.2,11.0,340.0,99.0,'11111222,11111222,11144222' 
ADCP,ioos:station:wmo:42887:1,2015-02-02T10:20:00Z,28.1910,-88.4960,48.2,12.3,347.0,99.0,'11111222,11111222,11144222' 
ADCP,ioos:station:wmo:42887:1,2015-02-02T10:40:00Z,28.1910,-88.4960,48.2,13.3,340.0,99.0,'11111222,11111222,11144222' 
ADCP,ioos:station:wmo:42887:1,2015-02-02T11:00:00Z,28.1910,-88.4960,48.2,13.3,340.0,99.0,'11111222,11111222,11144222' 
ADCP,ioos:station:wmo:42887:1,2015-02-02T11:20:00Z,28.1910,-88.4960,48.2,10.9,350.0,99.0,'11111222,11111222,11144222' 
ADCP,ioos:station:wmo:42887:1,2015-02-02T11:40:00Z,28.1910,-88.4960,48.2,11.0,346.0,99.0,'11111222,11111222,11144222' 
ADCP,ioos:station:wmo:42887:1,2015-02-02T12:00:00Z,28.1910,-88.4960,48.2,10.4,339.0,99.0,'11111222,11111222,11144222' 
ADCP,ioos:station:wmo:42887:1,2015-02-02T12:20:00Z,28.1910,-88.4960,48.2,9.4,342.0,99.0,'11111222,11111222,11144222' 
ADCP,ioos:station:wmo:42887:1,2015-02-02T12:40:00Z,28.1910,-88.4960,48.2,11.8,332.0,99.0,'11111222,11111222,11144222' 
ADCP,ioos:station:wmo:42887:1,2015-02-02T13:00:00Z,28.1910,-88.4960,48.2,9.4,335.0,99.0,'11111222,11111222,11144222' 
ADCP,ioos:station:wmo:42887:1,2015-02-02T13:20:00Z,28.1910,-88.4960,48.2,12.3,335.0,99.0,'11111222,11111222,11144222' 
ADCP,ioos:station:wmo:42887:1,2015-02-02T13:40:00Z,28.1910,-88.4960,48.2,11.4,335.0,99.0,'11111222,11111222,11144222' 
ADCP,ioos:station:wmo:42887:1,2015-02-02T14:00:00Z,28.1910,-88.4960,48.2,10.9,332.0,99.0,'11111222,11111222,11144222' 
ADCP,ioos:station:wmo:42887:1,2015-02-02T14:20:00Z,28.1910,-88.4960,48.2,11.4,337.0,99.0,'11111222,11111222,11144222' 
ADCP,ioos:station:wmo:42887:1,2015-02-02T14:40:00Z,28.1910,-88.4960,48.2,12.2,337.0,99.0,'11111222,11111222,11144222' 
ADCP,ioos:station:wmo:42887:1,2015-02-02T15:00:00Z,28.1910,-88.4960,48.2,13.6,331.0,99.0,'11111222,11111222,11144222' 
ADCP,ioos:station:wmo:42887:1,2015-02-02T15:20:00Z,28.1910,-88.4960,48.2,9.8,333.0,99.0,'11111222,11111222,11144222' 
ADCP,ioos:station:wmo:42887:1,2015-02-02T15:40:00Z,28.1910,-88.4960,48.2,10.0,340.0,99.0,'11111222,11111222,11144222' 
ADCP,ioos:station:wmo:42887:1,2015-02-02T16:00:00Z,28.1910,-88.4960,48.2,10.4,344.0,99.0,'11111222,11111222,11144222' 
ADCP,ioos:station:wmo:42887:1,2015-02-02T16:20:00Z,28.1910,-88.4960,48.2,9.8,349.0,99.0,'11111222,11111222,11144222' 
ADCP,ioos:station:wmo:42887:1,2015-02-02T16:40:00Z,28.1910,-88.4960,48.2,10.5,346.0,99.0,'11111222,11111222,11144222' 
ADCP,ioos:station:wmo:42887:1,2015-02-02T17:00:00Z,28.1910,-88.4960,48.2,11.8,351.0,99.0,'11111222,11111222,11144222' 
ADCP,ioos:station:wmo:42887:1,2015-02-02T17:20:00Z,28.1910,-88.4960,48.2,9.8,348.0,99.0,'11111222,11111222,11144222' 
ADCP,ioos:station:wmo:42887:1,2015-02-02T17:40:00Z,28.1910,-88.4960,48.2,9.1,354.0,99.0,'11111222,11111222,11144222' 
ADCP,ioos:station:wmo:42887:1,2015-02-02T18:00:00Z,28.1910,-88.4960,48.2,8.7,349.0,99.0,'11111222,11111222,11144222' 
ADCP,ioos:station:wmo:42887:1,2015-02-02T18:20:00Z,28.1910,-88.4960,48.2,9.9,355.0,99.0,'11111222,11111222,11144222' 
ADCP,ioos:station:wmo:42887:1,2015-02-02T18:40:00Z,28.1910,-88.4960,48.2,8.8,353.0,99.0,'11111222,11111222,11144222' 
ADCP,ioos:station:wmo:42887:1,2015-02-02T19:00:00Z,28.1910,-88.4960,48.2,10.1,360.0,99.0,'11111222,11144222,11144222' 
ADCP,ioos:station:wmo:42887:1,2015-02-02T19:20:00Z,28.1910,-88.4960,48.2,8.3,350.0,99.0,'11111222,11111222,11144222' 
ADCP,ioos:station:wmo:42887:1,2015-02-02T19:40:00Z,28.1910,-88.4960,48.2,8.7,358.0,99.0,'11111222,11111222,11144222' 
ADCP,ioos:station:wmo:42887:1,2015-02-02T20:00:00Z,28.1910,-88.4960,48.2,8.3,4.0,99.0,'11111222,11111222,11144222' 
ADCP,ioos:station:wmo:42887:1,2015-02-02T20:20:00Z,28.1910,-88.4960,48.2,8.3,5.0,99.0,'11111222,11111222,11144222' 
ADCP,ioos:station:wmo:42887:1,2015-02-02T20:40:00Z,28.1910,-88.4960,48.2,8.8,18.0,99.0,'11111222,11111222,11144222' 
ADCP,ioos:station:wmo:42887:1,2015-02-02T21:00:00Z,28.1910,-88.4960,48.2,8.3,3.0,99.0,'11111222,11111222,11144222' 
ADCP,ioos:station:wmo:42887:1,2015-02-02T21:20:00Z,28.1910,-88.4960,48.2,9.5,20.0,99.0,'11111222,11111222,11144222' 
ADCP,ioos:station:wmo:42887:1,2015-02-02T21:40:00Z,28.1910,-88.4960,48.2,9.6,21.0,99.0,'11111222,11111222,11144222' 
ADCP,ioos:station:wmo:42887:1,2015-02-02T22:00:00Z,28.1910,-88.4960,48.2,8.0,11.0,99.0,'11111222,11111222,11144222' 
ADCP,ioos:station:wmo:42887:1,2015-02-02T22:20:00Z,28.1910,-88.4960,48.2,7.3,6.0,99.0,'11111222,11111222,11144222' 
ADCP,ioos:station:wmo:42887:1,2015-02-02T22:40:00Z,28.1910,-88.4960,48.2,8.7,26.0,99.0,'11111222,11111222,11144222' 
ADCP,ioos:station:wmo:42887:1,2015-02-02T23:00:00Z,28.1910,-88.4960,48.2,6.4,16.0,99.0,'11111222,11111222,11144222' 
ADCP,ioos:station:wmo:42887:1,2015-02-02T23:20:00Z,28.1910,-88.4960,48.2,6.3,3.0,99.0,'11111222,11111222,11144222' 
ADCP,ioos:station:wmo:42887:1,2015-02-02T23:40:00Z,28.1910,-88.4960,48.2,6.5,19.0,99.0,'11111222,11111222,11144222' 
ADCP,ioos:station:wmo:42887:1,2015-02-03T00:00:00Z,28.1910,-88.4960,48.2,9.8,16.0,99.0,'11111222,11111222,11144222' 
ADCP,ioos:station:wmo:42887:1,2015-02-03T00:20:00Z,28.1910,-88.4960,48.2,9.0,23.0,99.0,'11111222,11111222,11144222' 
ADCP,ioos:station:wmo:42887:1,2015-02-03T00:40:00Z,28.1910,-88.4960,48.2,9.1,22.0,99.0,'11111222,11111222,11144222' 
ADCP,ioos:station:wmo:42887:1,2015-02-03T01:00:00Z,28.1910,-88.4960,48.2,8.3,22.0,99.0,'11111222,11111222,11144222' 
ADCP,ioos:station:wmo:42887:1,2015-02-03T01:20:00Z,28.1910,-88.4960,48.2,8.4,26.0,99.0,'11111222,11111222,11144222' 
ADCP,ioos:station:wmo:42887:1,2015-02-03T01:40:00Z,28.1910,-88.4960,48.2,7.4,26.0,99.0,'11111222,11111222,11144222' 
ADCP,ioos:station:wmo:42887:1,2015-02-03T02:00:00Z,28.1910,-88.4960,48.2,7.1,21.0,99.0,'11111222,11111222,11144222' 
ADCP,ioos:station:wmo:42887:1,2015-02-03T02:20:00Z,28.1910,-88.4960,48.2,7.4,30.0,99.0,'11111222,11111222,11144222' 
ADCP,ioos:station:wmo:42887:1,2015-02-03T02:40:00Z,28.1910,-88.4960,48.2,7.0,15.0,99.0,'11111222,11111222,11144222' 
ADCP,ioos:station:wmo:42887:1,2015-02-03T03:00:00Z,28.1910,-88.4960,48.2,7.8,21.0,99.0,'11111222,11111222,11144222' 
ADCP,ioos:station:wmo:42887:1,2015-02-03T03:20:00Z,28.1910,-88.4960,48.2,5.9,33.0,99.0,'11111222,11111222,11144222' 
ADCP,ioos:station:wmo:42887:1,2015-02-03T03:40:00Z,28.1910,-88.4960,48.2,5.5,33.0,99.0,'11111222,11111222,11144222' 
ADCP,ioos:station:wmo:42887:1,2015-02-03T04:00:00Z,28.1910,-88.4960,48.2,5.4,26.0,99.0,'11111222,11111222,11144222' 
ADCP,ioos:station:wmo:42887:1,2015-02-03T04:20:00Z,28.1910,-88.4960,48.2,8.0,28.0,99.0,'11111222,11111222,11144222' 
ADCP,ioos:station:wmo:42887:1,2015-02-03T04:40:00Z,28.1910,-88.4960,48.2,7.6,18.0,99.0,'11111222,11111222,11144222' 
ADCP,ioos:station:wmo:42887:1,2015-02-03T05:00:00Z,28.1910,-88.4960,48.2,6.3,21.0,99.0,'11111222,11111222,11144222' 
ADCP,ioos:station:wmo:42887:1,2015-02-03T05:20:00Z,28.1910,-88.4960,48.2,6.3,33.0,99.0,'11111222,11111222,11144222' 
ADCP,ioos:station:wmo:42887:1,2015-02-03T05:40:00Z,28.1910,-88.4960,48.2,7.1,19.0,99.0,'11111222,11111222,11144222' 
ADCP,ioos:station:wmo:42887:1,2015-02-03T06:00:00Z,28.1910,-88.4960,48.2,8.3,20.0,99.0,'11111222,11111222,11144222' 
ADCP,ioos:station:wmo:42887:1,2015-02-03T06:20:00Z,28.1910,-88.4960,48.2,6.4,18.0,99.0,'11111222,11111222,11144222' 
ADCP,ioos:station:wmo:42887:1,2015-02-03T06:40:00Z,28.1910,-88.4960,48.2,7.7,22.0,99.0,'11111222,11111222,11144222' 
ADCP,ioos:station:wmo:42887:1,2015-02-03T07:00:00Z,28.1910,-88.4960,48.2,5.7,31.0,99.0,'11111222,11111222,11144222' 
ADCP,ioos:station:wmo:42887:1,2015-02-03T07:20:00Z,28.1910,-88.4960,48.2,7.7,16.0,99.0,'11111222,11111222,11144222' 
ADCP,ioos:station:wmo:42887:1,2015-02-03T07:40:00Z,28.1910,-88.4960,48.2,6.3,27.0,99.0,'11111222,11111222,11144222' 
ADCP,ioos:station:wmo:42887:1,2015-02-03T08:00:00Z,28.1910,-88.4960,48.2,7.3,14.0,99.0,'11111222,11111222,11144222' 
ADCP,ioos:station:wmo:42887:1,2015-02-03T08:20:00Z,28.1910,-88.4960,48.2,6.4,21.0,99.0,'11111222,11111222,11144222' 
ADCP,ioos:station:wmo:42887:1,2015-02-03T08:40:00Z,28.1910,-88.4960,48.2,7.1,22.0,99.0,'11111222,11111222,11144222' 
ADCP,ioos:station:wmo:42887:1,2015-02-03T09:00:00Z,28.1910,-88.4960,48.2,7.8,20.0,99.0,'11111222,11111222,11144222' 
ADCP,ioos:station:wmo:42887:1,2015-02-03T09:20:00Z,28.1910,-88.4960,48.2,7.6,31.0,99.0,'11111222,11111222,11144222' 
ADCP,ioos:station:wmo:42887:1,2015-02-03T09:40:00Z,28.1910,-88.4960,48.2,8.4,29.0,99.0,'11111222,11111222,11144222' 
ADCP,ioos:station:wmo:42887:1,2015-02-03T10:00:00Z,28.1910,-88.4960,48.2,6.8,25.0,99.0,'11111222,11111222,11144222' 
ADCP,ioos:station:wmo:42887:1,2015-02-03T10:20:00Z,28.1910,-88.4960,48.2,5.2,35.0,99.0,'11111222,11111222,11144222' 
ADCP,ioos:station:wmo:42887:1,2015-02-03T10:40:00Z,28.1910,-88.4960,48.2,6.5,39.0,99.0,'11111222,11111222,11144222' 
ADCP,ioos:station:wmo:42887:1,2015-02-03T11:00:00Z,28.1910,-88.4960,48.2,7.5,44.0,99.0,'11111222,11111222,11144222' 
ADCP,ioos:station:wmo:42887:1,2015-02-03T11:20:00Z,28.1910,-88.4960,48.2,7.1,38.0,99.0,'11111222,11111222,11144222' 
ADCP,ioos:station:wmo:42887:1,2015-02-03T11:40:00Z,28.1910,-88.4960,48.2,7.2,39.0,99.0,'11111222,11111222,11144222' 
ADCP,ioos:station:wmo:42887:1,2015-02-03T12:00:00Z,28.1910,-88.4960,48.2,5.8,47.0,99.0,'11111222,11111222,11144222' 
ADCP,ioos:station:wmo:42887:1,2015-02-03T12:20:00Z,28.1910,-88.4960,48.2,6.3,42.0,99.0,'11111222,11111222,11144222' 
ADCP,ioos:station:wmo:42887:1,2015-02-03T12:40:00Z,28.1910,-88.4960,48.2,6.0,53.0,99.0,'11111222,11111222,11144222' 
ADCP,ioos:station:wmo:42887:1,2015-02-03T13:00:00Z,28.1910,-88.4960,48.2,5.1,48.0,99.0,'11111222,11111222,11144222' 
ADCP,ioos:station:wmo:42887:1,2015-02-03T13:20:00Z,28.1910,-88.4960,48.2,3.3,52.0,99.0,'11111222,11111222,11144222' 
ADCP,ioos:station:wmo:42887:1,2015-02-03T13:40:00Z,28.1910,-88.4960,48.2,4.7,39.0,99.0,'11111222,11111222,11144222' 
ADCP,ioos:station:wmo:42887:1,2015-02-03T14:00:00Z,28.1910,-88.4960,48.2,4.7,53.0,99.0,'11111222,11111222,11144222' 
ADCP,ioos:station:wmo:42887:1,2015-02-03T14:20:00Z,28.1910,-88.4960,48.2,5.4,46.0,99.0,'11111222,11111222,11144222' 
ADCP,ioos:station:wmo:42887:1,2015-02-03T14:40:00Z,28.1910,-88.4960,48.2,5.3,45.0,99.0,'11111222,11111222,11144222' 
ADCP,ioos:station:wmo:42887:1,2015-02-03T15:00:00Z,28.1910,-88.4960,48.2,4.0,47.0,99.0,'11111222,11111222,11144222' 
ADCP,ioos:station:wmo:42887:1,2015-02-03T15:20:00Z,28.1910,-88.4960,48.2,3.6,57.0,99.0,'11111222,11111222,11144222' 
ADCP,ioos:station:wmo:42887:1,2015-02-03T15:40:00Z,28.1910,-88.4960,48.2,6.4,50.0,99.0,'11111222,11111222,11144222' 
ADCP,ioos:station:wmo:42887:1,2015-02-03T16:00:00Z,28.1910,-88.4960,48.2,4.6,44.0,99.0,'11111222,11111222,11144222' 
ADCP,ioos:station:wmo:42887:1,2015-02-03T16:20:00Z,28.1910,-88.4960,48.2,3.5,53.0,99.0,'11111222,11111222,11144222' 
ADCP,ioos:station:wmo:42887:1,2015-02-03T16:40:00Z,28.1910,-88.4960,48.2,1.0,53.0,99.0,'11111222,11111222,11144222' 
ADCP,ioos:station:wmo:42887:1,2015-02-03T17:00:00Z,28.1910,-88.4960,48.2,2.0,75.0,99.0,'11111222,11111222,11144222' 
ADCP,ioos:station:wmo:42887:1,2015-02-03T17:20:00Z,28.1910,-88.4960,48.2,3.9,56.0,99.0,'11111222,11111222,11144222' 
ADCP,ioos:station:wmo:42887:1,2015-02-03T17:40:00Z,28.1910,-88.4960,48.2,3.3,64.0,99.0,'11111222,11111222,11144222' 
ADCP,ioos:station:wmo:42887:1,2015-02-03T18:00:00Z,28.1910,-88.4960,48.2,5.1,79.0,99.0,'11111222,11111222,11144222' 
ADCP,ioos:station:wmo:42887:1,2015-02-03T18:20:00Z,28.1910,-88.4960,48.2,4.4,80.0,99.0,'11111222,11111222,11144222' 
ADCP,ioos:station:wmo:42887:1,2015-02-03T18:40:00Z,28.1910,-88.4960,48.2,2.0,78.0,99.0,'11111222,11111222,11144222' 
ADCP,ioos:station:wmo:42887:1,2015-02-03T19:00:00Z,28.1910,-88.4960,48.2,2.7,80.0,99.0,'11111222,11111222,11144222' 
ADCP,ioos:station:wmo:42887:1,2015-02-03T19:20:00Z,28.1910,-88.4960,48.2,5.2,81.0,99.0,'11111222,11111222,11144222' 